• In Hungary
  • List of Countries
  • For 7 days
  • Water Temperature
  • Satellite Maps
  • Weather Map
  • News
  • Weather Widgets
  • user-avatar
    Login

    Hourly Weather Soma Bey

    Today, 16 August, Wednesday

    Time Temperature Precipitation Wind Pressure Humidity
    00:00 +35°C° 0 mm 4 mps 742 mmHg 31%
    01:00 +35°C° 0 mm 4 mps 742 mmHg 32%
    02:00 +34°C° 0 mm 5 mps 742 mmHg 34%
    03:00 +33°C° 0 mm 5 mps 742 mmHg 35%
    04:00 +33°C° 0 mm 5 mps 742 mmHg 37%
    05:00 +32°C° 0 mm 5 mps 742 mmHg 38%
    06:00 +33°C° 0 mm 5 mps 742 mmHg 37%
    07:00 +34°C° 0 mm 5 mps 742 mmHg 35%
    08:00 +36°C° 0 mm 5 mps 742 mmHg 32%
    09:00 +37°C° 0 mm 5 mps 742 mmHg 29%
    10:00 +40°C° 0 mm 5 mps 743 mmHg 26%
    11:00 +41°C° 0 mm 5 mps 743 mmHg 23%
    12:00 +42°C° 0 mm 5 mps 742 mmHg 22%
    13:00 +42°C° 0 mm 5 mps 742 mmHg 21%
    14:00 +43°C° 0 mm 5 mps 742 mmHg 20%
    15:00 +43°C° 0 mm 5 mps 742 mmHg 20%
    16:00 +42°C° 0 mm 4 mps 742 mmHg 20%
    17:00 +42°C° 0 mm 4 mps 742 mmHg 21%
    18:00 +41°C° 0 mm 4 mps 742 mmHg 22%
    19:00 +40°C° 0 mm 4 mps 742 mmHg 24%
    20:00 +38°C° 0 mm 3 mps 742 mmHg 25%
    21:00 +37°C° 0 mm 3 mps 742 mmHg 25%
    22:00 +36°C° 0 mm 3 mps 742 mmHg 25%
    23:00 +36°C° 0 mm 3 mps 743 mmHg 25%

    Tomorrow, 17 August, Thursday

    Time Temperature Precipitation Wind Pressure Humidity
    00:00 +35°C° 0 mm 3 mps 742 mmHg 26%
    01:00 +35°C° 0 mm 3 mps 742 mmHg 27%
    02:00 +34°C° 0 mm 3 mps 742 mmHg 28%
    03:00 +32°C° 0 mm 2 mps 742 mmHg 29%
    04:00 +32°C° 0 mm 2 mps 742 mmHg 31%
    05:00 +31°C° 0 mm 2 mps 742 mmHg 33%
    06:00 +32°C° 0 mm 2 mps 743 mmHg 31%
    07:00 +35°C° 0 mm 3 mps 743 mmHg 29%
    08:00 +36°C° 0 mm 3 mps 744 mmHg 27%
    09:00 +37°C° 0 mm 3 mps 744 mmHg 25%
    10:00 +40°C° 0 mm 4 mps 744 mmHg 23%
    11:00 +41°C° 0 mm 4 mps 744 mmHg 20%
    12:00 +42°C° 0 mm 4 mps 743 mmHg 20%
    13:00 +42°C° 0 mm 4 mps 743 mmHg 20%
    14:00 +43°C° 0 mm 5 mps 743 mmHg 20%
    15:00 +42°C° 0 mm 4 mps 742 mmHg 21%
    16:00 +42°C° 0 mm 4 mps 742 mmHg 22%
    17:00 +40°C° 0 mm 3 mps 742 mmHg 23%
    18:00 +39°C° 0 mm 3 mps 742 mmHg 24%
    19:00 +38°C° 0 mm 3 mps 743 mmHg 26%
    20:00 +37°C° 0 mm 2 mps 743 mmHg 28%
    21:00 +37°C° 0 mm 2 mps 743 mmHg 29%
    22:00 +36°C° 0 mm 2 mps 743 mmHg 31%
    23:00 +36°C° 0 mm 2 mps 744 mmHg 32%

    Day after tomorrow, 18 August, Friday

    Time Temperature Precipitation Wind Pressure Humidity
    00:00 +35°C° 0 mm 2 mps 743 mmHg 32%
    01:00 +35°C° 0 mm 2 mps 743 mmHg 31%
    02:00 +35°C° 0 mm 3 mps 743 mmHg 31%
    03:00 +34°C° 0 mm 2 mps 743 mmHg 32%
    04:00 +34°C° 0 mm 2 mps 744 mmHg 33%
    05:00 +32°C° 0 mm 2 mps 744 mmHg 34%
    06:00 +34°C° 0 mm 3 mps 744 mmHg 31%
    07:00 +36°C° 0 mm 3 mps 745 mmHg 28%
    08:00 +37°C° 0 mm 4 mps 745 mmHg 25%
    09:00 +38°C° 0 mm 4 mps 745 mmHg 23%
    10:00 +41°C° 0 mm 4 mps 746 mmHg 21%
    11:00 +42°C° 0 mm 4 mps 746 mmHg 20%
    12:00 +42°C° 0 mm 4 mps 745 mmHg 19%
    13:00 +43°C° 0 mm 4 mps 745 mmHg 19%
    14:00 +43°C° 0 mm 5 mps 745 mmHg 19%
    15:00 +43°C° 0 mm 4 mps 744 mmHg 20%
    16:00 +42°C° 0 mm 4 mps 744 mmHg 20%
    17:00 +42°C° 0 mm 4 mps 744 mmHg 20%
    18:00 +40°C° 0 mm 3 mps 744 mmHg 22%
    19:00 +39°C° 0 mm 3 mps 745 mmHg 24%
    20:00 +38°C° 0 mm 2 mps 745 mmHg 26%
    21:00 +37°C° 0 mm 2 mps 745 mmHg 27%
    22:00 +37°C° 0 mm 2 mps 745 mmHg 27%
    23:00 +36°C° 0 mm 2 mps 745 mmHg 28%

    19 August, Saturday

    Time Temperature Precipitation Wind Pressure Humidity
    00:00 +36°C° 0 mm 2 mps 745 mmHg 28%
    01:00 +36°C° 0 mm 2 mps 745 mmHg 27%
    02:00 +35°C° 0 mm 3 mps 744 mmHg 27%
    03:00 +35°C° 0 mm 3 mps 745 mmHg 27%
    04:00 +35°C° 0 mm 3 mps 745 mmHg 27%
    05:00 +34°C° 0 mm 3 mps 745 mmHg 27%
    06:00 +36°C° 0 mm 3 mps 745 mmHg 25%
    07:00 +37°C° 0 mm 4 mps 746 mmHg 23%
    08:00 +40°C° 0 mm 4 mps 746 mmHg 20%
    09:00 +41°C° 0 mm 4 mps 746 mmHg 18%
    10:00 +42°C° 0 mm 5 mps 746 mmHg 16%
    11:00 +45°C° 0 mm 6 mps 746 mmHg 14%
    12:00 +45°C° 0 mm 6 mps 746 mmHg 14%
    13:00 +46°C° 0 mm 6 mps 745 mmHg 14%
    14:00 +46°C° 0 mm 7 mps 745 mmHg 14%
    15:00 +46°C° 0 mm 6 mps 744 mmHg 15%
    16:00 +45°C° 0 mm 6 mps 744 mmHg 16%
    17:00 +44°C° 0 mm 6 mps 744 mmHg 16%
    18:00 +42°C° 0 mm 5 mps 744 mmHg 18%
    19:00 +41°C° 0 mm 4 mps 745 mmHg 20%
    20:00 +40°C° 0 mm 4 mps 745 mmHg 21%
    21:00 +38°C° 0 mm 4 mps 745 mmHg 20%
    22:00 +38°C° 0 mm 4 mps 745 mmHg 19%
    23:00 +38°C° 0 mm 4 mps 745 mmHg 18%

    20 August, Sunday

    Time Temperature Precipitation Wind Pressure Humidity
    00:00 +37°C° 0 mm 4 mps 744 mmHg 18%
    01:00 +37°C° 0 mm 4 mps 744 mmHg 19%
    02:00 +36°C° 0 mm 4 mps 744 mmHg 19%
    03:00 +36°C° 0 mm 4 mps 744 mmHg 21%
    04:00 +35°C° 0 mm 5 mps 744 mmHg 22%
    05:00 +34°C° 0 mm 5 mps 744 mmHg 24%
    06:00 +36°C° 0 mm 5 mps 744 mmHg 23%
    07:00 +37°C° 0 mm 5 mps 745 mmHg 22%
    08:00 +40°C° 0 mm 5 mps 745 mmHg 21%
    09:00 +41°C° 0 mm 6 mps 745 mmHg 19%
    10:00 +44°C° 0 mm 7 mps 745 mmHg 17%
    11:00 +46°C° 0 mm 7 mps 744 mmHg 15%
    12:00 +46°C° 0 mm 7 mps 744 mmHg 15%
    13:00 +46°C° 0 mm 8 mps 743 mmHg 15%
    14:00 +48°C° 0 mm 8 mps 743 mmHg 16%
    15:00 +46°C° 0 mm 8 mps 743 mmHg 16%
    16:00 +46°C° 0 mm 8 mps 742 mmHg 17%
    17:00 +45°C° 0 mm 7 mps 742 mmHg 18%
    18:00 +44°C° 0 mm 7 mps 743 mmHg 21%
    19:00 +42°C° 0 mm 6 mps 743 mmHg 23%
    20:00 +40°C° 0 mm 5 mps 743 mmHg 25%
    21:00 +40°C° 0 mm 5 mps 743 mmHg 25%
    22:00 +39°C° 0 mm 5 mps 743 mmHg 25%
    23:00 +39°C° 0 mm 5 mps 743 mmHg 26%

    21 August, Monday

    Time Temperature Precipitation Wind Pressure Humidity
    00:00 +37°C° 0 mm 5 mps 742 mmHg 27%
    01:00 +38°C° 0 mm 6 mps 742 mmHg 28%
    02:00 +36°C° 0 mm 6 mps 742 mmHg 29%
    03:00 +35°C° 0 mm 6 mps 742 mmHg 30%
    04:00 +35°C° 0 mm 6 mps 742 mmHg 32%
    05:00 +34°C° 0 mm 6 mps 743 mmHg 34%
    06:00 +36°C° 0 mm 6 mps 743 mmHg 30%
    07:00 +38°C° 0 mm 7 mps 743 mmHg 27%
    08:00 +39°C° 0 mm 7 mps 743 mmHg 24%
    09:00 +41°C° 0 mm 7 mps 743 mmHg 21%
    10:00 +44°C° 0 mm 7 mps 743 mmHg 19%
    11:00 +46°C° 0 mm 7 mps 743 mmHg 16%
    12:00 +46°C° 0 mm 7 mps 742 mmHg 16%
    13:00 +46°C° 0 mm 8 mps 742 mmHg 16%
    14:00 +48°C° 0 mm 8 mps 741 mmHg 16%
    15:00 +46°C° 0 mm 8 mps 741 mmHg 17%
    16:00 +46°C° 0 mm 8 mps 741 mmHg 18%
    17:00 +45°C° 0 mm 7 mps 741 mmHg 19%
    18:00 +44°C° 0 mm 7 mps 741 mmHg 21%
    19:00 +42°C° 0 mm 6 mps 741 mmHg 23%
    20:00 +41°C° 0 mm 6 mps 742 mmHg 25%
    21:00 +40°C° 0 mm 5 mps 742 mmHg 26%
    22:00 +39°C° 0 mm 5 mps 742 mmHg 26%
    23:00 +37°C° 0 mm 5 mps 742 mmHg 27%
    Show more